ECMWFNIL_sfc_thetae_003.txt.gz
Theta_e
301 304 308 310 312 314 316 314 314 314 314 314 313 313 312 312 312 311 310 310 309 308 307 306 305 305 304 305 305 304 303 302 302 302 302 303 304 304 302 301 300 299
299 300 303 306 309 312 314 315 315 314 314 314 314 314 313 312 312 311 310 310 308 308 308 307 305 304 303 303 304 303 302 302 302 301 300 300 300 301 302 301 300 300
297 298 299 301 304 307 312 314 314 314 314 314 315 315 313 311 311 312 311 310 309 308 308 306 304 304 303 303 302 302 301 301 301 301 301 299 299 299 300 300 300 299
296 297 297 298 300 302 308 313 313 313 313 314 314 314 313 312 311 310 311 307 309 308 308 305 304 303 302 302 302 302 302 302 302 300 301 300 299 298 297 297 298 297
295 296 296 296 298 299 303 310 311 312 313 314 314 314 312 311 310 310 310 309 309 308 308 305 305 303 302 301 301 301 301 301 300 299 300 298 299 299 297 295 295 295
295 295 295 295 296 297 299 307 311 311 311 312 313 313 313 312 310 309 307 308 308 307 307 306 304 303 302 302 300 300 299 300 298 298 298 298 296 296 297 295 294 295
294 294 294 295 295 295 296 300 310 309 311 311 311 312 312 311 310 308 307 307 307 306 304 304 304 303 302 302 300 299 298 299 296 296 296 297 296 294 293 293 293 293
293 294 294 294 294 294 295 297 306 309 310 310 310 311 312 311 310 309 307 306 306 305 304 303 303 302 302 301 300 299 297 297 296 295 296 295 294 293 293 293 294 293
293 293 293 293 293 293 294 295 299 308 309 309 310 310 310 311 311 310 307 306 305 304 302 303 302 302 301 301 300 299 297 296 296 296 295 294 293 293 293 293 292 291
292 293 293 293 292 292 293 294 295 303 307 307 307 309 310 310 311 310 308 306 305 303 303 302 301 301 300 300 300 299 298 296 295 296 296 295 294 294 293 292 292 291
291 292 292 292 292 292 292 293 294 298 306 307 307 305 305 306 308 308 308 306 305 303 302 301 301 300 300 299 300 300 299 297 296 296 296 295 295 295 293 292 292 292
291 291 291 291 292 292 292 293 293 295 303 305 307 305 305 304 304 304 305 305 305 303 302 301 301 301 300 299 299 299 299 298 296 296 296 296 295 295 293 293 292 293
290 291 291 291 291 291 292 292 292 293 298 302 303 305 303 303 303 303 303 304 304 303 301 301 300 300 300 299 299 299 298 297 296 296 296 296 295 295 294 293 293 293
290 290 291 291 291 291 291 291 292 292 296 301 301 303 303 303 303 303 302 303 303 301 301 301 300 299 299 298 299 299 298 297 295 294 293 294 294 294 294 293 293 293
290 290 291 291 290 291 290 291 291 292 294 298 298 302 302 303 303 303 301 300 301 302 301 300 300 300 300 298 298 297 296 294 293 293 293 293 293 294 294 294 293 293
289 289 290 290 290 289 290 290 290 291 292 294 297 298 301 301 301 302 301 300 300 299 299 299 300 301 297 296 297 297 296 295 294 293 293 293 292 292 292 293 293 293
289 289 289 289 289 289 289 289 289 290 291 292 295 297 297 297 299 300 300 301 300 299 298 298 299 300 296 298 298 298 298 295 294 293 292 292 292 291 291 291 292 293
288 288 288 288 288 288 288 288 289 289 290 291 293 295 296 297 297 299 300 300 300 299 298 298 299 297 297 297 298 298 296 295 295 294 292 293 292 292 292 292 292 291
287 287 287 287 288 288 288 288 288 289 289 291 292 294 295 295 297 297 297 298 298 297 297 297 297 297 298 297 297 298 297 296 295 294 293 293 293 292 292 292 292 292
285 286 287 287 288 288 288 288 288 288 289 291 292 293 294 293 294 295 296 295 296 297 297 297 297 296 297 297 297 297 297 296 293 293 293 293 293 292 292 292 292 292
284 285 286 287 288 288 288 288 288 288 289 291 292 292 293 294 294 294 294 294 294 294 295 295 296 296 297 297 297 297 297 297 294 293 293 293 292 292 292 292 292 292
284 285 286 287 288 288 288 287 288 288 288 290 291 292 294 295 294 294 293 293 293 293 294 293 294 296 296 297 297 297 298 295 295 293 293 293 292 291 292 292 292 292
285 286 287 287 287 287 287 287 287 288 289 291 290 291 292 293 293 293 294 293 292 292 292 293 293 294 296 296 297 297 297 296 295 294 294 292 292 292 292 292 291 291
286 286 287 287 287 287 287 287 288 288 289 290 290 291 291 292 293 293 292 292 291 291 292 292 292 292 295 296 296 297 296 295 295 295 293 293 292 292 292 292 291 290
286 287 287 287 287 287 288 287 288 288 289 290 290 291 291 292 292 293 292 292 291 291 291 292 292 291 294 295 296 296 295 295 295 295 293 293 293 292 291 292 291 290
284 286 286 287 287 287 288 288 288 288 289 290 290 292 292 292 292 293 291 292 291 291 291 292 292 291 292 295 295 296 296 294 295 294 293 292 292 292 291 291 291 290

ECMWFNIL_sfc_thetae_009.txt.gz
Theta_e
293 293 293 293 295 296 296 296 297 296 297 297 296 296 297 298 300 300 301 302 308 314 315 316 314 314 314 314 314 314 314 313 313 313 312 310 310 309 308 307 306 306
292 293 293 294 294 296 296 297 296 297 296 297 297 297 298 298 299 300 300 300 303 310 314 315 314 314 314 313 313 313 313 313 312 312 311 310 309 309 309 308 307 306
290 292 292 293 293 295 296 296 296 297 297 297 298 297 297 297 297 298 299 300 300 306 313 314 313 313 313 313 313 312 312 312 311 311 311 310 309 308 309 308 307 306
289 291 292 293 294 294 295 296 296 296 297 296 296 297 296 296 296 297 297 296 299 303 310 313 312 313 313 313 312 312 312 312 312 311 310 310 309 308 308 308 306 305
288 291 293 293 294 295 295 295 295 296 296 296 297 296 295 295 295 295 296 296 298 300 307 311 312 312 312 312 312 311 312 311 311 310 309 308 308 308 307 306 305 304
285 289 292 293 294 294 294 294 295 295 296 296 296 296 295 295 294 294 294 295 297 298 303 311 311 312 312 312 311 311 310 311 311 310 309 308 307 307 306 305 304 302
281 282 283 290 292 293 294 294 295 296 296 296 296 295 295 294 293 293 294 294 295 296 299 307 311 311 312 311 310 310 310 310 310 309 308 308 306 303 304 303 302 302
279 280 282 284 288 292 293 294 295 296 296 296 295 295 295 294 294 293 293 294 294 295 297 303 310 311 311 311 309 309 309 310 309 308 307 307 305 303 303 303 302 302
278 279 280 282 283 284 290 293 294 295 296 296 296 295 295 295 294 293 293 293 293 294 295 300 308 310 310 310 309 309 308 308 309 308 307 305 304 304 303 303 302 301
277 278 278 280 281 282 283 289 294 295 295 296 296 295 294 294 295 294 293 292 292 293 294 298 305 309 309 309 309 309 308 308 308 308 307 306 305 305 304 303 302 302
276 277 277 278 280 282 283 286 290 293 294 294 295 295 294 294 294 294 292 292 292 292 293 296 303 308 308 308 309 309 308 308 308 307 307 307 306 305 303 303 303 302
275 276 276 277 278 279 280 282 286 290 292 294 295 294 294 294 293 293 292 291 291 292 292 294 299 306 308 308 308 309 308 308 307 307 307 307 306 306 305 304 303 303
275 276 276 276 277 278 279 280 281 281 283 290 293 294 293 292 292 291 291 290 290 291 291 292 296 303 308 307 307 308 308 307 306 306 306 307 306 306 305 305 304 303
274 275 276 277 278 278 278 278 279 280 282 285 291 292 292 292 291 291 291 290 290 290 291 292 294 300 306 307 306 307 307 306 306 305 305 306 306 306 305 305 304 303
273 274 276 276 277 277 277 278 278 280 281 282 287 291 292 292 291 290 290 289 290 290 290 291 293 298 305 306 306 306 307 305 305 304 305 305 305 305 305 304 304 304
273 274 275 276 276 276 276 277 278 278 279 281 283 288 290 290 290 290 289 289 289 289 289 291 293 298 300 300 302 305 306 305 305 304 304 304 304 304 304 303 303 304
272 272 273 274 275 276 276 277 277 277 278 279 281 283 286 288 288 288 288 289 289 289 289 290 292 296 299 300 301 301 305 305 303 302 302 303 303 302 302 302 302 302
271 271 272 273 274 275 276 276 277 277 277 278 278 280 283 286 286 287 288 288 288 289 289 289 291 293 298 300 300 301 301 304 304 301 300 302 302 302 302 301 301 301
270 270 271 273 274 275 276 276 276 276 276 277 277 280 282 283 285 286 287 288 288 288 288 289 290 293 297 299 300 300 300 302 301 302 299 299 301 301 301 301 300 298
270 270 270 272 274 275 275 275 276 276 276 277 278 280 282 283 285 285 286 287 287 287 288 289 290 292 296 298 299 299 300 301 302 300 300 301 301 301 300 300 300 298
269 269 270 271 273 274 275 275 276 276 276 277 278 280 281 282 284 284 285 286 287 287 288 288 290 292 296 298 299 299 300 301 302 300 299 299 300 300 300 300 299 299
268 269 269 270 270 272 274 275 276 276 276 277 278 280 282 284 285 286 286 286 287 287 287 288 289 292 295 297 298 299 299 299 299 298 297 297 298 297 298 299 299 298
268 268 268 268 269 270 272 275 276 276 277 277 277 280 283 283 284 285 286 286 287 287 287 288 289 291 295 297 298 299 298 299 297 297 296 296 296 297 297 297 296 297
267 267 267 267 268 269 271 273 276 277 277 279 278 280 283 284 285 286 287 287 287 287 288 288 289 292 295 296 297 298 297 297 297 297 295 295 295 295 295 296 295 293
266 267 267 267 267 268 270 272 275 276 278 280 280 282 284 286 287 287 287 288 288 288 288 288 289 291 294 296 297 297 296 297 298 296 294 294 295 294 294 295 295 292
266 266 266 266 267 268 269 271 274 277 278 278 280 281 283 286 288 287 287 287 288 288 288 289 290 292 292 296 296 297 297 297 298 296 294 293 294 294 293 293 293 293

ECMWFNIL_sfc_thetae_012.txt.gz
Theta_e
281 281 281 282 283 284 285 285 286 288 291 292 292 292 292 293 294 295 296 296 296 297 297 298 299 300 301 302 306 314 313 313 313 314 312 311 311 310 310 309 308 307
281 282 282 281 281 281 282 284 286 289 290 292 293 293 293 293 294 295 295 295 295 296 296 297 298 299 300 301 303 310 312 312 312 312 311 311 311 311 310 309 308 306
281 280 279 279 279 280 281 282 282 283 287 292 293 293 293 293 293 294 295 295 295 295 295 296 296 297 299 300 302 306 312 311 311 311 310 310 311 310 310 309 308 305
279 279 278 278 279 279 280 280 281 282 284 287 292 293 293 293 292 293 294 293 293 293 293 294 295 296 298 300 301 304 310 311 311 311 309 309 309 310 310 309 307 306
278 278 278 278 278 279 279 278 279 281 283 284 286 291 292 291 290 291 292 292 292 292 293 293 294 295 296 298 300 303 308 310 311 310 309 309 309 309 309 308 307 305
277 277 277 276 276 276 277 277 278 279 282 283 285 287 291 292 292 291 291 291 291 292 292 292 293 294 295 296 298 301 306 309 310 309 309 308 308 308 308 307 306 304
275 275 276 276 275 275 276 276 277 278 280 283 284 285 287 291 292 291 291 291 291 291 291 291 292 292 294 295 296 299 304 309 309 309 308 308 307 306 306 306 305 304
274 274 274 274 274 274 275 276 277 278 279 281 282 285 287 289 289 290 290 290 290 291 291 291 291 292 293 294 295 297 300 308 309 308 308 307 307 305 305 306 305 304
273 273 273 273 273 273 274 275 276 277 278 278 279 281 285 287 290 291 290 290 290 290 290 290 291 291 292 293 294 296 299 306 308 308 307 306 306 305 305 305 304 303
272 272 272 272 272 273 273 274 276 276 277 278 279 280 280 282 283 287 291 290 289 289 289 289 290 290 291 292 293 295 298 303 308 307 307 307 307 306 305 305 304 302
271 271 271 271 272 272 273 274 274 275 276 277 278 278 279 280 282 285 289 290 289 289 289 289 289 290 290 290 292 293 296 301 307 307 307 307 307 306 303 305 304 303
270 271 271 271 271 272 272 273 274 275 276 276 277 277 278 279 280 283 286 289 289 289 289 289 289 289 289 290 291 292 294 298 305 307 307 307 306 306 305 305 304 304
269 270 270 270 270 271 272 273 273 274 275 275 276 276 277 278 279 281 283 286 289 289 288 288 289 289 289 289 290 291 293 296 303 307 307 306 306 306 305 306 305 304
269 269 270 270 270 271 271 271 272 273 274 275 276 276 276 277 278 278 280 283 287 288 288 288 288 288 288 289 289 291 293 295 301 306 306 306 305 306 305 305 306 305
268 269 269 269 269 270 270 271 272 272 274 275 275 275 276 276 277 278 279 281 285 288 288 288 288 288 288 289 289 290 292 295 299 305 305 305 305 305 305 305 305 305
268 268 268 269 269 269 270 270 271 272 273 274 274 275 275 276 276 277 278 279 281 285 287 287 288 288 288 289 290 289 290 292 295 302 305 305 304 303 303 304 305 305
267 267 268 268 268 269 269 270 271 272 273 274 275 275 275 275 276 276 277 278 279 282 285 286 287 288 289 290 290 291 290 291 292 298 304 304 303 303 302 302 304 304
267 267 267 267 268 268 269 270 270 270 271 273 274 274 275 276 276 276 276 277 278 280 282 285 286 288 290 290 290 291 290 290 292 295 303 304 303 303 302 302 302 303
266 266 266 267 267 268 269 269 270 270 272 272 273 274 275 275 275 276 276 277 278 279 281 283 285 288 289 290 290 290 291 291 291 293 300 303 303 303 302 302 302 302
266 265 265 266 267 268 268 269 269 269 270 270 271 272 273 275 275 276 276 276 277 279 281 282 284 287 289 290 290 290 291 291 291 292 298 302 303 303 303 303 302 301
265 265 265 265 266 266 267 267 267 268 268 269 270 271 273 275 276 276 277 277 278 279 281 283 285 287 289 290 290 290 291 291 291 292 297 301 303 303 303 303 302 303
264 264 264 265 265 265 265 266 266 267 267 269 270 271 273 276 277 277 277 277 278 280 281 282 284 287 288 290 290 291 291 290 290 292 295 300 301 301 302 303 303 302
264 264 264 264 264 265 265 265 266 266 267 268 269 270 271 274 277 277 278 278 279 281 281 282 284 287 289 290 290 290 290 289 289 291 295 299 300 301 302 302 302 301
264 263 263 263 264 264 264 265 266 267 268 269 269 269 270 272 275 277 278 279 279 281 282 283 284 286 288 289 290 290 290 289 289 291 294 297 299 300 301 301 300 296
263 263 263 263 263 264 264 265 265 266 267 268 268 269 271 273 276 277 279 281 282 283 284 284 284 286 288 289 290 291 290 288 289 291 294 295 298 297 299 300 299 296
263 263 263 263 263 264 265 265 266 266 267 267 268 269 270 273 277 278 278 279 280 282 284 285 285 286 287 289 290 290 291 289 290 292 294 295 296 297 297 297 297 297

ECMWFNIL_sfc_thetae_015.txt.gz
Theta_e
277 277 277 277 277 278 277 277 278 278 278 278 278 278 279 281 283 285 287 290 293 294 294 295 295 295 296 296 297 297 297 298 298 299 299 300 302 309 310 310 310 309
276 277 277 276 276 277 277 277 277 277 276 277 277 277 278 280 282 284 286 288 290 293 294 294 294 294 294 294 294 295 295 296 297 298 298 299 300 305 310 310 309 308
276 275 275 274 275 275 275 275 276 276 276 276 276 277 278 279 280 282 284 286 288 291 293 293 293 292 292 292 293 294 294 295 296 298 298 298 299 302 310 310 309 307
274 274 274 274 274 274 274 275 275 275 275 274 275 276 277 278 279 281 284 286 287 289 291 292 291 291 291 292 292 293 293 294 296 297 298 298 299 300 308 310 308 307
273 274 274 273 273 274 273 273 273 273 274 274 275 275 276 277 278 280 282 283 286 289 290 291 291 291 291 291 291 291 292 293 295 296 297 297 299 300 304 309 308 307
273 273 273 272 272 272 272 272 273 273 273 273 274 275 276 277 277 278 279 280 284 285 286 289 291 290 290 290 290 291 291 292 293 295 296 296 298 300 302 308 308 307
272 272 272 272 272 272 272 272 272 273 273 273 274 274 275 275 276 277 278 281 281 281 283 286 289 290 290 290 290 289 290 291 292 293 294 295 297 298 301 307 308 307
272 272 272 271 271 271 271 271 272 272 272 273 272 273 274 275 276 277 278 279 279 280 282 284 287 290 290 289 289 289 289 291 291 292 293 295 296 297 299 306 308 307
272 271 271 271 270 270 270 270 271 271 272 271 272 272 274 274 275 276 278 278 278 279 281 283 286 289 290 289 288 288 289 289 290 291 292 293 295 296 298 305 307 306
271 271 270 270 270 270 270 270 270 271 271 271 272 272 273 274 274 275 276 277 278 279 281 283 284 287 289 288 288 288 288 289 289 290 291 292 294 295 298 303 306 305
271 271 270 269 269 269 269 270 270 270 270 271 271 271 272 272 273 274 275 276 277 278 279 280 282 284 287 288 288 288 288 288 289 289 290 291 293 295 296 301 306 305
270 270 270 269 269 269 269 269 269 270 270 270 270 270 271 272 272 273 274 275 276 277 278 278 280 281 284 288 288 288 288 288 288 289 290 291 293 294 297 301 305 305
269 269 269 269 269 269 268 269 269 269 269 269 270 271 271 271 273 273 274 275 275 276 276 277 278 280 282 286 288 288 288 287 288 288 290 291 293 295 298 301 305 305
269 269 269 269 269 269 268 268 268 269 269 269 270 270 270 271 271 271 273 273 274 275 276 277 278 279 281 285 288 288 287 287 288 288 289 289 290 292 295 300 305 305
269 269 269 269 269 268 268 268 268 268 269 269 269 269 270 270 271 271 272 273 274 275 275 276 277 278 280 283 287 287 288 287 287 287 287 287 288 290 292 297 304 305
269 268 268 268 268 268 267 267 267 268 268 268 268 269 269 270 270 270 270 271 272 274 275 276 276 278 280 282 286 287 287 287 287 287 287 287 287 288 290 294 302 305
267 267 268 267 267 267 267 267 267 267 267 267 268 268 268 269 270 270 271 273 273 274 274 275 276 277 280 282 284 287 288 288 287 287 287 287 287 287 288 291 298 304
267 267 267 266 266 266 266 266 266 266 266 266 267 267 268 269 269 270 271 271 271 272 273 275 276 279 281 282 283 285 287 288 288 287 286 287 287 287 289 291 296 303
266 266 266 265 265 265 265 266 265 265 265 266 266 267 267 267 268 268 268 269 270 270 272 274 275 279 281 282 283 284 286 287 288 288 286 286 286 287 288 289 293 300
265 265 264 264 264 264 265 265 265 265 265 266 266 267 266 267 267 268 268 269 270 270 272 274 275 278 281 281 282 284 285 286 287 287 286 286 286 287 288 289 291 298
263 263 262 263 263 264 264 264 264 265 265 265 266 266 266 266 267 268 268 269 270 272 273 274 276 280 281 282 283 284 285 287 287 287 287 286 287 287 288 289 291 297
262 262 262 262 262 263 263 263 264 264 264 265 266 266 267 268 268 268 268 269 270 271 272 275 277 280 281 281 283 284 286 285 286 286 286 286 286 287 288 289 292 296
262 261 261 261 261 262 262 263 263 264 265 266 265 266 266 267 267 268 269 269 269 271 272 275 277 279 281 282 283 284 285 285 286 286 286 286 286 287 288 290 292 295
261 260 260 260 261 261 261 262 264 265 265 266 265 265 266 267 267 268 268 269 270 270 271 272 275 278 280 282 283 284 285 284 285 285 285 285 286 287 288 290 292 293
260 260 260 260 260 261 262 263 264 265 266 266 266 266 266 267 268 268 268 269 270 271 274 274 275 278 281 282 283 284 285 285 285 285 285 285 286 286 288 290 293 294
260 260 260 261 261 262 264 265 266 266 266 266 267 267 267 267 268 268 268 269 270 272 274 277 278 279 281 283 284 285 286 285 286 285 284 285 285 286 287 289 293 296